Flag for U.S.A. Weather past 2 weeks in Neenah, Wisconsin, U.S.A.

Now
73 °F

Partly sunny.


Feels Like: 73 °F
Forecast: 64 / 77 °F
Wind: 6 mph from Southeast

Location: Appleton / Outagamie

Current Time: Aug 21, 2014 at 5:06:22 PM

Latest Report: Aug 21, 2014 at 3:45 PM


Visibility: 10 mi

Pressure: 29.93 "Hg

Humidity: 83%

Dew point: 68 °F

Location of NeenahLocation

Historic Weather in Neenah — Graph

°F

Neenah temperature yesterday

Maximum temperature yesterday: 73 °F (at 3:45 PM)
Minimum temperature yesterday: 59 °F (at 3:15 AM)
Average temperature yesterday: 65 °F

Past Weeks' High & Low Weather Summary

 TemperatureHumidityPressure
High82 °F (Aug 16, 2:45 PM)100% (Aug 12, 3:55 AM)32.99 "Hg (Aug 12, 3:55 AM)
Low46 °F (Aug 14, 4:55 AM)34% (Aug 7, 3:45 PM)29.66 "Hg (Aug 19, 3:55 AM)
Average65 °F74%29.99 "Hg
* Reported Aug 6 3:45 PM — Aug 21 3:45 PM, Neenah, Weather by CustomWeather, © 2014

Note: Actual official high and low records may vary slightly from our data, if they occured in-between our weather recording intervals... More about our weather records

Advertising

Neenah weather history for previous 24 hours

 ConditionsComfort  
Time TempWeatherWind HumidityBarometerVisibility
3:45 PM
Aug 21
73 °FPartly sunny.6 mph83%29.93 "Hg10 mi
2:45 PM70 °FPartly sunny.8 mph88%29.94 "Hg7 mi
1:45 PM68 °FMostly cloudy.9 mph94%29.93 "Hg7 mi
12:45 PM66 °FFog.5 mph100%29.96 "Hg4 mi
11:45 AM68 °FLight rain. Overcast.5 mph83%29.98 "Hg7 mi
10:45 AM70 °FOvercast.9 mph78%29.96 "Hg10 mi
9:45 AM68 °FMore clouds than sun.8 mph83%29.96 "Hg10 mi
8:45 AM68 °FPartly sunny.9 mph83%29.96 "Hg10 mi
7:45 AM66 °FScattered clouds.7 mph88%29.96 "Hg7 mi
6:45 AM64 °FPassing clouds.5 mph94%29.96 "Hg7 mi
5:45 AM64 °FPartly cloudy.3 mph94%29.94 "Hg10 mi
5:15 AM63 °FClear.3 mph94%29.94 "Hg10 mi
4:55 AM63 °FClear.3 mph94%29.95 "Hg10 mi
4:35 AM64 °FPassing clouds.5 mph88%29.94 "Hg10 mi
4:15 AM63 °FClear.3 mph94%29.95 "Hg7 mi
3:55 AM64 °FClear.5 mph88%29.95 "Hg10 mi
3:35 AM64 °FClear.3 mph94%29.95 "Hg10 mi
3:15 AM64 °FClear.3 mph94%29.95 "Hg10 mi
2:55 AM64 °FClear.3 mph94%29.95 "Hg10 mi
2:15 AM64 °FPassing clouds.3 mph94%29.96 "Hg7 mi
1:55 AM64 °FPassing clouds.No wind94%29.97 "Hg7 mi
1:35 AM63 °FPassing clouds.No wind100%29.97 "Hg7 mi
1:15 AM64 °FPassing clouds.No wind94%29.97 "Hg7 mi
12:55 AM64 °FPassing clouds.No wind94%29.97 "Hg10 mi
12:35 AM63 °FClear.No wind94%29.97 "Hg10 mi
12:15 AM64 °FPassing clouds.No wind88%29.97 "Hg10 mi
11:55 PM
Aug 20
64 °FPassing clouds.No wind88%29.96 "Hg10 mi
11:35 PM66 °FPassing clouds.3 mph83%29.96 "Hg10 mi
11:15 PM68 °FPassing clouds.No wind78%29.96 "Hg10 mi
10:45 PM66 °FPassing clouds.No wind83%29.95 "Hg10 mi
9:45 PM68 °FPartly cloudy.No wind78%29.94 "Hg10 mi
8:45 PM70 °FScattered clouds.5 mph73%29.94 "Hg10 mi
7:45 PM72 °FScattered clouds.5 mph69%29.92 "Hg10 mi
Weather by CustomWeather, © 2014

See weather overviewHow to use our weather pages